Regional Weather Roundup
Issued by NWS

Home | Current Version | Previous Version | Graphics & Text | Print | Product List | Glossary On
Versions: 1 2 3 4 5 6 7 8 9 10 11 12 13 14 15 16 17 18 19 20 21 22 23 24 25 26 27 28 29 30 31 32 33 34 35 36 37 38 39 40 41 42 43 44 45 46 47 48 49 50
000
ASUS45 KTFX 302119
RWRMT
MONTANA HOURLY WEATHER ROUNDUP
NATIONAL WEATHER SERVICE GREAT FALLS MT
319 PM MDT THU OCT 30 2014

NOTE: "FAIR" INDICATES FEW OR NO CLOUDS BELOW 12000 FEET WITH NO
SIGNIFICANT WEATHER AND/OR OBSTRUCTIONS TO VISIBILITY.

* THESE STATIONS ARE NOT UNDER NWS QUALITY CONTROL. THEY DO NOT
   REPORT WEATHER SUCH AS PRECIPITATION OR FOG.

MTZ001>007-043-302200-
WEST OF THE DIVIDE
CITY           SKY/WX    TMP DP  RH WIND       PRES   REMARKS
KALISPELL      CLOUDY    48  41  77 NE6       30.15F
MISSOULA       CLOUDY    52  39  61 VRB3      30.15F
BUTTE          CLOUDY    54  30  40 CALM      30.21F
MULLAN PASS    FOG       37  37 100 S10       30.11F VSB M1/4 WCI  30
* DEER LODGE   PTSUNNY   55  36  49 N/A        N/A
* ESSEX        N/A       44  39  83 S7         N/A
* HAMILTON APT PTSUNNY   54  37  53 N2         N/A
* LIBBY APT    CLOUDY    46  43  89 N/A        N/A
* LINCOLN      N/A       49  38  66 SW2        N/A
* LOOKOUT PASS N/A       41  41 100 S8G14      N/A
* POLSON       N/A       44  44 100 SE1        N/A
* RONAN APT    PTSUNNY   46  43  89 N/A        N/A
* SEELEY LAKE  N/A       48  39  71 SW2        N/A
* THOMP F APT  CLOUDY    55  30  39 E6G11      N/A
* YAAK HILL    N/A       50  39  66 SE1G8      N/A
$$

MTZ008-052>055-302200-
SOUTHWEST MONTANA
CITY           SKY/WX    TMP DP  RH WIND       PRES   REMARKS
BOZEMAN        CLOUDY    54  30  40 CALM      30.23F
DILLON         PTSUNNY   57  27  32 E3        30.21F
W YELLOWSTONE  PTSUNNY   54  28  37 W6        30.30F
* ENNIS APT    CLOUDY    63  25  24 S6         N/A
* THREE FORKS  PTSUNNY   55  43  64 N/A        N/A
* TWIN BRIDGES PTSUNNY   54  27  35 N/A        N/A
* BOULDER HILL N/A       50  26  39 S17        N/A
* MONIDA PASS  N/A       52  29  41 SE17G22    N/A
* RAYNOLDS PAS N/A       53  32  45 SE17G22    N/A
* WHITEHALL    N/A       55  32  42 W3         N/A
* WISE RIVER   N/A       48  31  52 W4         N/A
$$

MTZ009>010-012-014-046-048-049-054-302200-
EAST SLOPES AND CENTRAL MONTANA
CITY           SKY/WX    TMP DP  RH WIND       PRES   REMARKS
CUT BANK       PTCLDY    52  30  43 SE16      30.17F
GREAT FALLS    CLOUDY    55  36  49 NE7       30.19F
HELENA         PTCLDY    55  34  45 CALM      30.20F
MALMSTROM AFB  CLOUDY    55  36  49 E8        30.20F
* CONRAD       PTSUNNY   55  37  51 E11        N/A
* DEARBORN     N/A       56  36  47 SW2        N/A
* EAST GLACIER N/A       49  33  54 W8         N/A
* MONARCH      N/A       53  26  35 E12        N/A
* ROGERS PASS  N/A       49  29  46 SE4        N/A
* SAINT MARY   N/A       52  31  45 SW4G10     N/A
* SWEET GRASS  N/A       55  32  42 S18G24     N/A
* WHITE SULPH  N/A       59  27  29 S10G15     N/A
$$

MTZ011-013-016-021-035-040-045-047-050-051-302200-
NORTH CENTRAL MONTANA
CITY           SKY/WX    TMP DP  RH WIND       PRES   REMARKS
HAVRE          PTCLDY    39  34  82 NE21      30.27F WCI  29
LEWISTOWN      SUNNY     55  34  45 E15       30.25F
* N BAR RANCH  SUNNY     54  30  40 S12G17    30.29F
* FORT BENTON  PTCLDY    59  32  36 E12G17    30.21F
* CHESTER      N/A       51  35  54 SE8G15     N/A
* DENTON       N/A       60  31  33 SE7G14     N/A
* GEYSER       N/A       56  30  37 E11G16     N/A
* JUDITH GAP   N/A       54  30  40 SE14G19    N/A
* LOMA         N/A       57  36  46 E12G19     N/A
$$

MTZ017>020-022>027-061-062-302200-
NORTHEAST MONTANA
CITY           SKY/WX    TMP DP  RH WIND       PRES   REMARKS
GLASGOW        CLOUDY    37  30  76 SE14      30.40S WCI  28
GLENDIVE       CLOUDY    37  30  76 NE7       30.43S WCI  32
JORDAN         SUNNY     39  34  82 E10       30.37S WCI  32
SIDNEY         CLOUDY    39  32  76 CALM      30.46R
WOLF POINT     CLOUDY    37  30  76 E10       30.45R WCI  30
* BEAVER HILL  N/A       36  31  82 NE6        N/A   WCI  31
* LINDSAY DVD  N/A       36  32  85 NE7        N/A   WCI  30
* NAVAJO       N/A       33  29  85 E7         N/A   WCI  27
* PLENTYWOOD A N/A       34  30  85 NE7        N/A   WCI  28
* POPLAR APT   N/A       36  30  79 N/A        N/A
$$

MTZ028>042-056>058-302200-
SOUTHCENTRAL AND SOUTHEAST MONTANA
CITY           SKY/WX    TMP DP  RH WIND       PRES   REMARKS
BAKER          CLOUDY    39  30  70 NE8       30.40R WCI  33
BILLINGS       PTCLDY    57  30  36 NE9       30.28F
LIVINGSTON     PTCLDY    59  28  31 E12       30.24F
MILES CITY     SUNNY     46  34  63 NE13      30.36S
* FORSYTH APT  SUNNY     54  36  51 NE8        N/A
* LAUREL APT   PTCLDY    59  28  31 N/A        N/A
* ROUNDUP APT  SUNNY     59  30  33 N/A        N/A
* ALZADA       N/A       56  33  42 NW4        N/A
* HYSHAM       N/A       56  33  42 E8G14      N/A
* LAME DEER    N/A       53  33  47 NE8G13     N/A
* REED POINT   N/A       61  29  30 E9         N/A
* ROSCOE HILL  N/A       54  25  33 SE1        N/A
$$

REGIONAL REPORTS...DAKOTAS
CITY           SKY/WX    TMP DP  RH WIND       PRES   REMARKS
WILLISTON      CLOUDY    37  30  76 NE7       30.46R WCI  32
DICKINSON      CLOUDY    37  30  76 NE8       30.40R WCI  31
BEACH          N/A       36  32  85 E10       30.42R WCI  29
CROSBY         CLOUDY    32  28  85 NE9       30.49R WCI  24
TIOGA          CLOUDY    32  32 100 NE9       30.48R WCI  24
BISMARCK       CLOUDY    37  30  76 N7        30.44R WCI  32
GRAND FORKS    PTSUNNY   39  21  48 N23G32    30.38R WCI  28
FARGO          CLOUDY    37  27  67 N25G35    30.35R WCI  25
BUFFALO SD     SUNNY     39  30  70 NE8       30.32S WCI  33
RAPID CITY     SUNNY     50  36  59 N20       30.32S
$$

REGIONAL REPORTS...WYOMING/IDAHO/WASHINGTON
CITY           SKY/WX    TMP DP  RH WIND       PRES   REMARKS
GILLETTE       SUNNY     57  28  33 NW8       30.32F
SHERIDAN       SUNNY     61  27  27 E9        30.29F
CODY           PTSUNNY   57  27  32 SE10      30.27F
YELLOWSTONE LA CLOUDY    45  28  51 VRB3      30.37F
SALMON         PTCLDY    55  34  45 CALM      30.14F
MULLAN PASS    FOG       37  37 100 S10       30.11S VSB M1/4 WCI  30
SAND POINT     CLOUDY    50  43  77 NE14      30.07F
SPOKANE        CLOUDY    54  45  72 NE14      30.01F
$$

REGIONAL REPORTS...ALBERTA
CITY           SKY/WX    TMP DP  RH WIND       PRES   REMARKS
CALGARY        FOG       32  30  92 S17       30.08F VSB 3    WCI  21
LETHBRIDGE     PTCLDY    48  39  71 NE10      30.13F
MEDICINE HAT   PTCLDY    50  37  61 CALM      30.22F
EDMONTON       CLOUDY    34  30  85 SE24      30.10F WCI  22
WATERTON GATE  N/A       52  34  50 SW9        N/A
CARDSTON       N/A       54  34  47 SE9G18     N/A
MILK RIVER     N/A       55  34  45 S21        N/A
$$

REGIONAL REPORTS...SASKATCHEWAN
CITY           SKY/WX    TMP DP  RH WIND       PRES   REMARKS
SWIFT CURRENT  CLOUDY    32  28  85 SE21G28   30.35F WCI  20
MOOSE JAW      CLOUDY    34  28  79 SE10      30.47S WCI  26
REGINA         CLOUDY    30  25  82 SE8       30.50S WCI  22
VAL MARIE      N/A       36  30  79 SE12       N/A   WCI  28
ASSINIBOIA     N/A       34  28  79 SE12       N/A   WCI  25

$$




USA.gov is the U.S. government's official web portal to all federal, state and local government web resources and services.